TIME,DELAY(SENSOR),PRES,OXYGEN,RAWTEMP,T(OPTODE),TCPHASE,FLUOR,BETA(BETA700),BETA(BETA412),BETA(BETA440),CDOM,C(CSC),ED(ED411.90),ED(ED443.80),ED(ED489.40),ED(ED554.70),LU(LU412.20),LU(LU443.80),LU(LU489.40),LU(LU555.00),COMP,TILTX,TILTY,CHECK
1342564031,5808,845.8800048828125000,172.0597991943359400,394.5392150878906000,10.7690896987915040,37.9888191223144500,52,100,97,79,79,14369,2146958198,2147515062,2147282944,2147499410,2147088713,2146931465,2147694180,2147115940,2895,-2,8,65446
1342567627,5802,970.9199829101562000,187.0269927978515600,478.3193054199219000,8.2005929946899410,38.3515396118164060,52,102,99,80,81,14357,2146959789,2147515446,2147293074,2147516397,2147091721,2146925138,2147714221,2147118619,542,-1,8,61702
1342571227,5806,995.9500122070312000,198.3417053222656200,491.7750854492187500,7.7844400405883790,37.8585586547851560,52,102,100,79,81,14348,2146957412,2147516214,2147292196,2147522066,2147091620,2146921362,2147718153,2147119780,94,-1,8,33405
1342574827,5807,998.7600097656250000,199.2917938232422000,493.4448852539062500,7.7327179908752440,37.8281784057617200,52,104,100,78,82,14351,2146957805,2147517302,2147295177,2147518930,2147092105,2146922541,2147717430,2147118098,141,-1,8,63907
1342578427,5808,1004.4099731445312000,200.1490936279297000,494.5603942871094000,7.6981539726257320,37.7948913574218750,53,103,100,79,81,14296,2146959652,2147516480,2147295149,2147518445,2147091245,2146921325,2147718262,2147118345,504,-1,8,7251
1342582027,5804,1006.0399780273438000,201.1369018554687500,495.8074951171875000,7.6595048904418945,37.7563285827636700,51,100,100,78,81,14294,2146959716,2147519332,2147289307,2147519753,2147093686,2146920475,2147715675,2147114176,3549,-2,8,55399
1342585627,5805,1006.5300292968750000,202.7409973144531200,497.3568115234375000,7.6114730834960940,37.6849403381347660,52,103,101,79,81,14295,2146957312,2147515748,2147291081,2147520877,2147090834,2146918116,2147718354,2147117028,3393,-1,8,14689
1342589227,5803,1003.2700195312500000,202.4349060058593800,498.0096130371094000,7.5912289619445800,37.7153396606445300,53,103,100,79,83,14297,2146958893,2147515574,2147290496,2147520356,2147089005,2146921563,2147715867,2147117961,3477,-1,8,11752
1342592827,5806,1002.6099853515625000,204.4512939453125000,500.9776916503906000,7.4991588592529300,37.6448287963867200,52,102,99,80,82,14294,2146956242,2147514578,2147296713,2147519469,2147089472,2146918738,2147720192,2147117312,3136,-2,8,57087
1342596427,5804,1004.9199829101562000,206.1316986083984400,501.0822143554687500,7.4959139823913570,37.5450286865234400,53,103,98,80,82,14293,2146957723,2147518829,2147294290,2147515209,2147089984,2146920347,2147712987,2147117860,3525,-2,8,37844
1342600027,5806,1011.2899780273438000,204.3547973632812500,500.6181030273437500,7.5103149414062500,37.6441001892089840,52,106,101,79,82,14289,2146956251,2147515611,2147292827,2147518884,2147090779,2146915958,2147718848,2147115757,185,-1,8,43178
1342603627,5805,1010.4600219726562000,203.8220977783203000,500.0378112792969000,7.5283207893371580,37.6660118103027340,51,104,100,81,81,14289,2146957321,2147509613,2147292086,2147521590,2147093010,2146922660,2147716672,2147113691,355,-2,8,62847
1342607227,5809,1009.2600097656250000,203.6551971435547000,501.9560852050781000,7.4687929153442380,37.7094306945800800,53,101,100,78,81,14290,2146956598,2147516251,2147292992,2147520640,2147090825,2146919497,2147721874,2147119689,54,-1,8,46298
1342610827,5805,1014.4600219726562000,206.0773010253906200,501.0736999511719000,7.4961810111999510,37.5479698181152340,51,102,99,78,81,14289,2146957046,2147516928,2147291392,2147523858,2147088987,2146916982,2147723556,2147115977,2832,-1,8,56388
1342614427,5806,1016.1799926757812000,204.3627014160156200,500.3973999023437500,7.5171627998352050,37.6397399902343750,53,103,99,79,81,14291,2146958573,2147516452,2147292708,2147520128,2147091465,2146923556,2147715446,2147119021,449,-1,8,64488
1342618027,5806,1015.7800292968750000,204.8970947265625000,500.8680114746094000,7.5025620460510250,37.6160697937011700,53,104,102,84,81,14290,2146957202,2147516041,2147293120,2147521426,2147092059,2146916498,2147715995,2147116626,3312,-2,8,35675
1342621627,5806,1015.7000122070312000,205.4763031005859400,500.6906127929687500,7.5080661773681640,37.5777206420898440,53,103,100,80,81,14289,2146957613,2147515776,2147293824,2147521060,2147090048,2146919844,2147717257,2147115264,3200,-1,8,15179
1342625227,5805,1016.6099853515625000,204.9039001464843800,501.0044860839844000,7.4983239173889160,37.6178703308105500,53,102,100,78,82,14290,2146958656,2147513554,2147296905,2147521718,2147088630,2146921033,2147712585,2147116964,3516,-1,8,22736
1342628827,5805,1011.7100219726562000,204.8694000244140600,501.0736083984375000,7.4961819648742680,37.6206283569335940,53,104,100,79,82,14250,2146961060,2147512877,2147294171,2147522642,2147092653,2146924324,2147719030,2147116470,3215,-2,8,48166
1342632427,5806,1009.4099731445312000,204.2274932861328000,503.0368041992187500,7.4352488517761230,37.6939811706543000,52,102,100,79,82,14245,2146957074,2147516050,2147294802,2147520667,2147091520,2146921536,2147714953,2147116187,390,-1,8,64059
1342636027,5804,1012.4899902343750000,208.4915924072265600,504.6700134277344000,7.3845410346984860,37.4675102233886700,52,110,99,78,81,14247,2146957686,2147517522,2147293028,2147520448,2147090322,2146924086,2147715922,2147115913,2518,-1,8,31962
1342639627,5805,1014.8300170898438000,208.3663024902343800,504.4060974121094000,7.3927340507507320,37.4700889587402340,52,103,100,80,82,14244,2146960000,2147515849,2147295012,2147519908,2147090212,2146923538,2147718729,2147115849,2362,-2,8,26072
1342643227,5807,1011.4199829101562000,208.4922943115234400,504.8992919921875000,7.3774180412292480,37.4712486267089840,52,103,100,79,82,14247,2146960164,2147515529,2147295360,2147522395,2147085558,2146918784,2147719506,2147121371,2858,-1,8,32130
1342646827,5805,1011.5499877929688000,208.1513061523437500,504.3922119140625000,7.3931651115417480,37.4830207824707000,52,103,100,79,81,14244,2146955812,2147518509,2147293997,2147519689,2147091401,2146918683,2147717467,2147117366,2750,-1,8,56799
1342650427,5803,1013.0100097656250000,208.1918029785156200,504.3435974121094000,7.3946728706359860,37.4797401428222660,52,102,104,80,83,14241,2146958692,2147514185,2147297005,2147522944,2147089408,2146919021,2147719789,2147117833,2964,-1,8,19212
1342654027,5803,1019.4600219726562000,206.9835968017578000,502.3911132812500000,7.4552907943725590,37.5170211791992200,53,102,99,80,82,14243,2146958464,2147517440,2147292589,2147518976,2147092379,2146920036,2147714843,2147120118,2641,-2,8,10842
1342657627,5804,1019.2800292968750000,206.3218994140625000,502.1578979492187500,7.4625320434570310,37.5524215698242200,52,102,101,79,82,14237,2146956297,2147518400,2147295387,2147522496,2147089581,2146917659,2147715922,2147119670,2032,-2,8,42682
1342661227,5806,1023.7800292968750000,206.7382049560547000,501.9595947265625000,7.4686861038208010,37.5245704650878900,53,104,100,78,81,14236,2146957092,2147516589,2147293805,2147522578,2147089700,2146924315,2147714880,2147115172,2383,-1,8,60321
1342664827,5808,1017.0499877929688000,205.0406951904297000,503.4479980468750000,7.4224820137023930,37.6519012451171900,53,101,100,80,81,14235,2146956132,2147517458,2147295003,2147524105,2147093238,2146921654,2147719314,2147121014,1813,-1,8,25463
1342668427,5805,1018.7800292968750000,205.8690032958984400,503.2485046386719000,7.4286761283874510,37.5981903076171900,52,101,99,79,81,14237,2146959085,2147518006,2147293348,2147524571,2147091876,2146922230,2147715702,2147117769,1919,-1,8,62353
1342672027,5805,1018.1799926757812000,206.7561035156250000,504.4025878906250000,7.3928408622741700,37.5654411315918000,52,105,99,80,82,14234,2146958482,2147515574,2147295259,2147525366,2147089636,2146923776,2147718838,2147120384,2719,-1,8,13477
1342675627,5807,1021.5300292968750000,207.4904022216797000,502.9955139160156000,7.4365310668945310,37.4974594116210940,52,104,98,78,81,14238,2146958390,2147514066,2147292854,2147523977,2147088822,2146924873,2147718317,2147114523,218,-2,8,57195
1342679227,5808,1020.7700195312500000,206.9031066894531200,502.6997985839844000,7.4457111358642580,37.5267410278320300,51,103,100,80,82,14235,2146956736,2147518125,2147294555,2147524132,2147091812,2146922944,2147716900,2147119533,303,-1,8,52106
1342682827,5807,1019.5200195312500000,207.3148040771484400,503.4798889160156000,7.4214940071105960,37.5167884826660160,53,103,100,78,82,14233,2146956873,2147512685,2147296265,2147522093,2147090962,2146920960,2147716562,2147117001,913,-1,8,44790
1342686427,5805,1014.3499755859375000,208.7344055175781200,505.0975036621094000,7.3712630271911620,37.4606208801269500,52,103,100,78,82,14233,2146956873,2147516169,2147292114,2147524489,2147090404,2146921124,2147715364,2147116992,1615,-1,8,62212
1342690027,5803,1019.5499877929688000,208.9125976562500000,504.9035034179687500,7.3772859573364260,37.4464683532714840,52,104,100,79,82,14234,2146956644,2147516242,2147297508,2147521133,2147094582,2146920832,2147717942,2147118070,1748,-1,8,14568
1342693627,5804,1020.6199951171875000,208.5075988769531200,504.6868896484375000,7.3840150833129880,37.4672813415527340,52,104,100,78,81,14230,2146959177,2147513856,2147292022,2147523044,2147091035,2146921435,2147715410,2147117988,1637,-1,8,50041
1342697227,5806,1022.2199707031250000,208.9125976562500000,505.0165100097656000,7.3737759590148930,37.4487495422363300,52,103,101,78,80,14228,2146959515,2147509595,2147292772,2147522587,2147091510,2146928539,2147719908,2147116562,1735,-1,8,58122
1342700827,5804,1022.5100097656250000,208.8520050048828000,505.0672912597656000,7.3722000122070310,37.4532890319824200,53,102,100,79,82,14229,2146956077,2147512731,2147294372,2147520841,2147091483,2146920484,2147718811,2147117101,1921,-2,8,40766
1342704427,5808,1024.8900146484375000,207.5769042968750000,503.2697143554687500,7.4280190467834470,37.4967994689941400,52,101,100,79,83,14228,2146958756,2147518134,2147293083,2147525668,2147093851,2146924315,2147719954,2147116653,393,-1,8,17722
1342705855,5804,1024.1099853515625000,206.4886932373047000,503.5405883789062500,7.4196071624755860,37.5666999816894500,53,103,99,80,82,14299,2146957138,2147517110,2147294162,2147523739,2147096795,2146919926,2147715721,2147120237,3326,-1,8,42280
